Terug naar catalogus

STARLINK-30224

ActiefCommunicatieVLEO
NORAD 57416·PAYLOAD·🇺🇸 United States

Gelanceerd Jul 20, 2023 vanaf Vandenberg Space Force Base

Loading…

Volgende Passages (komende 24 uur)

TLE

VersSource: CelesTrak SupGP

Epoch: Sep 14, 2026, 21:36 UTC

1 57416C 23102N   26257.90048611  .00396720  00000+0  42092-2 0  2574
2 57416  42.9992 253.8663 0001710 271.3310 245.7769 15.62967697    18

Volg STARLINK-30224 in realtime met AllMySat

Download on the App Store